Weather History for KTVK - January, 2013

Change the Weather History Date:

Wednesday, January 30, 2013

  Actual Average Record
Temperature  
Mean Temperature 26 °F -  
Max Temperature 32 °F 34 °F 60 °F (2012)
Min Temperature 19 °F 15 °F -18 °F (1965)
Degree Days  
Heating Degree Days 40    
Moisture  
Dew Point 23 °F    
Average Humidity 89    
Maximum Humidity 100    
Minimum Humidity 74    
Precipitation  
Precipitation 0.00 in - - ()
Sea Level Pressure  
Sea Level Pressure 29.63 in    
Wind  
Wind Speed 17 mph (NW)    
Max Wind Speed 26 mph    
Max Gust Speed 36 mph    
Visibility 6 miles    
Events Rain , Snow    
Averages and records for this station are not official NWS values.
T = Trace of Precipitation, MM = Missing Value Source: NWS Daily Summary

Daily Weather History Graph

Daily Weather History Graph

Search for Another Location

Airport or City:

Trip Planner

Search our weather history database for the weather conditions in past years. The results will help you decide how hot, cold, wet, or windy it might be!

Date:

Astronomy

Jan. 30, 2013 Rise Set
Actual Time 7:23 AM CST 5:27 PM CST
Civil Twilight 6:54 AM CST 5:56 PM CST
Nautical Twilight 6:21 AM CST 6:29 PM CST
Astronomical Twilight 5:49 AM CST 7:01 PM CST
Moon 9:28 PM CST (1/30) 8:49 AM CST (1/30)
Length of Visible Light 11h 02m
Length of Day
10h 04m
Waning Gibbous, 87% of the Moon is Illuminated
Jan 30
Waning Gibbous
Feb 3
Last Quarter
Feb 10
New
Feb 17
First Quarter
Feb 25
Full

Hourly Weather History & Observations

Time (CST) Temp. Windchill Dew Point Humidity Pressure Visibility Wind Dir Wind Speed Gust Speed Precip Events Conditions
12:15 AM 32.0 °F 22.5 °F 32.0 °F 100% 29.53 in 3.0 mi North 12.7 mph 17.3 mph N/A Rain Rain
12:35 AM 32.0 °F 22.5 °F 32.0 °F 100% 29.52 in 4.0 mi North 12.7 mph - N/A Rain Light Rain
12:55 AM 32.0 °F 23.6 °F 32.0 °F 100% 29.54 in 5.0 mi North 10.4 mph - N/A Rain Rain
1:15 AM 32.0 °F 21.6 °F 32.0 °F 100% 29.50 in 5.0 mi North 15.0 mph - N/A Rain Rain
1:35 AM 32.0 °F 22.5 °F 32.0 °F 100% 29.45 in 8.0 mi NNE 12.7 mph 19.6 mph N/A Rain Light Rain
1:55 AM 32.0 °F 22.5 °F 32.0 °F 100% 29.45 in 10.0 mi NNE 12.7 mph 18.4 mph N/A Rain Light Rain
2:15 AM 32.0 °F 23.6 °F 32.0 °F 100% 29.44 in 10.0 mi NNE 10.4 mph - N/A Rain Light Rain
2:35 AM 32.0 °F 23.0 °F 32.0 °F 100% 29.46 in 7.0 mi North 11.5 mph 20.7 mph N/A Rain Rain
2:55 AM 32.0 °F 23.0 °F 32.0 °F 100% 29.47 in 2.5 mi North 11.5 mph - N/A Rain Light Rain
3:15 AM 32.0 °F 23.0 °F 32.0 °F 100% 29.43 in 1.5 mi North 11.5 mph - N/A Snow Light Snow
3:35 AM 32.0 °F 21.6 °F 32.0 °F 100% 29.42 in 1.2 mi North 15.0 mph - N/A Snow Light Snow
3:55 AM 32.0 °F 23.0 °F 32.0 °F 100% 29.42 in 1.0 mi NNW 11.5 mph - N/A Snow Light Snow
4:15 AM 32.0 °F 23.0 °F 32.0 °F 100% 29.43 in 1.0 mi NW 11.5 mph - N/A Snow Light Snow
4:35 AM 32.0 °F 21.6 °F 32.0 °F 100% 29.45 in 0.8 mi NW 15.0 mph - N/A Snow Light Snow
4:55 AM 32.0 °F 19.5 °F 32.0 °F 100% 29.46 in 0.5 mi NW 21.9 mph 31.1 mph N/A Snow Snow
5:15 AM 30.2 °F 15.9 °F 30.2 °F 100% 29.46 in 0.5 mi NW 26.5 mph 34.5 mph N/A Snow Snow
5:35 AM 28.4 °F 14.4 °F 28.4 °F 100% 29.48 in 0.8 mi NW 23.0 mph 31.1 mph N/A Snow Light Snow
5:55 AM 28.4 °F 15.1 °F 28.4 °F 100% 29.49 in 1.2 mi NNW 20.7 mph 31.1 mph N/A Snow Light Snow
6:15 AM 28.4 °F 14.1 °F 28.4 °F 100% 29.49 in 1.0 mi NNW 24.2 mph 32.2 mph N/A Snow Light Snow
6:35 AM 28.4 °F 17.5 °F 28.4 °F 100% 29.50 in 1.5 mi NNW 13.8 mph - N/A Snow Light Snow
6:55 AM 26.6 °F 11.7 °F 26.6 °F 100% 29.48 in 2.5 mi NNW 24.2 mph 31.1 mph N/A Snow Light Snow
7:15 AM 26.6 °F 12.4 °F 26.6 °F 100% 29.47 in 5.0 mi NNW 21.9 mph - N/A Rain Light Freezing Rain
7:35 AM 26.6 °F 12.7 °F 26.6 °F 100% 29.48 in 5.0 mi NNW 20.7 mph 29.9 mph N/A Rain Light Freezing Rain
7:55 AM 26.6 °F 13.1 °F 26.6 °F 100% 29.50 in 10.0 mi NNW 19.6 mph 26.5 mph N/A Rain Light Freezing Rain
8:15 AM 26.6 °F 12.7 °F 26.6 °F 100% 29.51 in 9.0 mi NW 20.7 mph 27.6 mph N/A Rain Light Freezing Rain
8:35 AM 26.6 °F 13.8 °F 26.6 °F 100% 29.52 in 8.0 mi NW 17.3 mph 28.8 mph N/A Rain Light Freezing Rain
8:55 AM 26.6 °F 13.1 °F 26.6 °F 100% 29.53 in 8.0 mi NNW 19.6 mph 28.8 mph N/A Rain Light Freezing Rain
9:15 AM 26.6 °F 12.4 °F 26.6 °F 100% 29.53 in 5.0 mi NW 21.9 mph - N/A Snow Light Snow
9:35 AM 26.6 °F 11.7 °F 26.6 °F 100% 29.55 in 1.8 mi NW 24.2 mph - N/A Snow Light Snow
9:55 AM 24.8 °F 9.3 °F 24.8 °F 100% 29.56 in 1.0 mi NW 24.2 mph 32.2 mph N/A Snow Light Snow
10:15 AM 24.8 °F 11.5 °F 24.8 °F 100% 29.58 in 1.2 mi NW 17.3 mph 32.2 mph N/A Snow Light Snow
10:35 AM 24.8 °F 10.0 °F 24.8 °F 100% 29.60 in 1.2 mi NW 21.9 mph 28.8 mph N/A Snow Light Snow
10:55 AM 24.8 °F 10.0 °F 23.0 °F 93% 29.61 in 1.0 mi NW 21.9 mph 31.1 mph N/A Snow Light Snow
11:15 AM 24.8 °F 10.0 °F 23.0 °F 93% 29.62 in 0.8 mi NW 21.9 mph 26.5 mph N/A Snow Light Snow
11:55 AM 23.0 °F 7.6 °F 21.2 °F 93% 29.63 in 0.8 mi NW 21.9 mph 35.7 mph N/A   Overcast
12:15 PM 23.0 °F 7.6 °F 21.2 °F 93% 29.64 in 1.5 mi WNW 21.9 mph 26.5 mph N/A Snow Light Snow
12:35 PM 23.0 °F 7.2 °F 19.4 °F 86% 29.64 in 2.0 mi NW 23.0 mph 33.4 mph N/A   Overcast
12:55 PM 23.0 °F 8.3 °F 19.4 °F 86% 29.64 in 5.0 mi NW 19.6 mph 25.3 mph N/A Rain Light Freezing Rain
1:15 PM 23.0 °F 7.6 °F 19.4 °F 86% 29.65 in 10.0 mi NW 21.9 mph 29.9 mph N/A   Mostly Cloudy
1:35 PM 24.8 °F 10.0 °F 19.4 °F 80% 29.64 in 7.0 mi NW 21.9 mph 32.2 mph N/A Rain Light Freezing Rain
1:55 PM 24.8 °F 9.0 °F 17.6 °F 74% 29.65 in 10.0 mi NW 25.3 mph 29.9 mph N/A   Mostly Cloudy
2:15 PM 23.0 °F 7.6 °F 17.6 °F 80% 29.66 in 3.0 mi NW 21.9 mph - N/A Rain Light Freezing Rain
2:35 PM 24.8 °F 9.3 °F 17.6 °F 74% 29.67 in 10.0 mi NW 24.2 mph 27.6 mph N/A   Mostly Cloudy
2:55 PM 24.8 °F 9.6 °F 17.6 °F 74% 29.68 in 10.0 mi NW 23.0 mph - N/A   Scattered Clouds
3:15 PM 23.0 °F 7.2 °F 17.6 °F 80% 29.69 in 10.0 mi WNW 23.0 mph 31.1 mph N/A   Mostly Cloudy
3:35 PM 23.0 °F 7.6 °F 17.6 °F 80% 29.70 in 10.0 mi WNW 21.9 mph 29.9 mph N/A   Mostly Cloudy
3:55 PM 23.0 °F 8.7 °F 15.8 °F 74% 29.71 in 10.0 mi NW 18.4 mph 24.2 mph N/A   Mostly Cloudy
4:15 PM 23.0 °F 6.6 °F 15.8 °F 74% 29.72 in 10.0 mi WNW 25.3 mph 31.1 mph N/A   Scattered Clouds
4:35 PM 23.0 °F 8.0 °F 15.8 °F 74% 29.72 in 10.0 mi WNW 20.7 mph - N/A Rain Light Freezing Rain
4:55 PM 23.0 °F 8.0 °F 17.6 °F 80% 29.74 in 10.0 mi WNW 20.7 mph 26.5 mph N/A Snow Light Snow
5:15 PM 23.0 °F 8.7 °F 15.8 °F 74% 29.75 in 10.0 mi WNW 18.4 mph - N/A   Overcast
5:35 PM 23.0 °F 9.2 °F 17.6 °F 80% 29.76 in 3.0 mi WNW 17.3 mph 24.2 mph N/A Snow Light Snow
5:55 PM 23.0 °F 7.6 °F 17.6 °F 80% 29.77 in 9.0 mi WNW 21.9 mph 27.6 mph N/A Snow Light Snow
6:15 PM 23.0 °F 8.0 °F 17.6 °F 80% 29.79 in 7.0 mi NW 20.7 mph 27.6 mph N/A Snow Light Snow
6:35 PM 21.2 °F 6.8 °F 17.6 °F 86% 29.80 in 9.0 mi NW 17.3 mph 21.9 mph N/A Snow Light Snow
6:55 PM 21.2 °F 7.3 °F 15.8 °F 80% 29.81 in 10.0 mi WNW 16.1 mph - N/A Snow Light Snow
7:15 PM 21.2 °F 6.8 °F 15.8 °F 80% 29.81 in 10.0 mi WNW 17.3 mph 25.3 mph N/A   Overcast
7:35 PM 21.2 °F 7.3 °F 14.0 °F 74% 29.82 in 10.0 mi WNW 16.1 mph 23.0 mph N/A   Overcast
7:55 PM 21.2 °F 8.3 °F 15.8 °F 80% 29.82 in 10.0 mi WNW 13.8 mph - N/A   Overcast
8:15 PM 19.4 °F 6.0 °F 14.0 °F 80% 29.82 in 10.0 mi West 13.8 mph - N/A   Mostly Cloudy
8:35 PM 21.2 °F 8.3 °F 14.0 °F 74% 29.83 in 10.0 mi West 13.8 mph - N/A   Mostly Cloudy
8:55 PM 21.2 °F 8.9 °F 14.0 °F 74% 29.84 in 10.0 mi West 12.7 mph - N/A Snow Light Snow
9:15 PM 23.0 °F 10.6 °F 15.8 °F 74% 29.84 in 10.0 mi West 13.8 mph - N/A   Overcast
9:35 PM 23.0 °F 11.1 °F 15.8 °F 74% 29.85 in 10.0 mi West 12.7 mph - N/A   Overcast
9:55 PM 23.0 °F 11.1 °F 15.8 °F 74% 29.85 in 10.0 mi West 12.7 mph - N/A   Overcast
10:15 PM 23.0 °F 11.1 °F 15.8 °F 74% 29.85 in 10.0 mi West 12.7 mph - N/A   Overcast
10:35 PM 21.2 °F 9.5 °F 15.8 °F 80% 29.85 in 10.0 mi West 11.5 mph - N/A   Overcast
10:55 PM 21.2 °F 9.5 °F 15.8 °F 80% 29.85 in 10.0 mi West 11.5 mph - N/A   Overcast
11:15 PM 21.2 °F 9.5 °F 15.8 °F 80% 29.85 in 10.0 mi West 11.5 mph - N/A   Overcast
11:35 PM 21.2 °F 8.3 °F 15.8 °F 80% 29.85 in 10.0 mi West 13.8 mph - N/A   Overcast
11:55 PM 21.2 °F 6.8 °F 15.8 °F 80% 29.86 in 10.0 mi West 17.3 mph - N/A Snow Light Snow